Location: Chmeln�
(49.6483°N, 14.9871°E)
Time: 08:31:02
(UTC+00:00)

MetOp-A - Pass Details

Date: 18 September 2020
Orbit: 820 x 821 km, 98.5° (Epoch: 24 October)

Event Time Altitude Azimuth Distance (km) Brightness Sun altitude
Exits shadow 18:22:25 10° 148° (SSE) 2,441 6.1 -13.0°
Reaches altitude 10° 18:22:29 10° 148° (SSE) 2,414 6.1 -13.0°
Maximum altitude 18:27:43 59° 70° (ENE) 947 4.2 -13.8°
Drops below altitude 10° 18:33:00 10° 352° (N) 2,430 7.0 -14.6°
Sets 18:35:23 0° 349° (NNW) 3,367 7.8 -14.9°
